Notices

What's New in latest Release from April 7th, 2021:

- Updated Glossary, including Speed of Maximum Gust, and Total Hourly Precipitation

- Updated national and regional climate services offices contacts and prices information

- Addition of station inventory lists for 1981-2010, 1971-2000, and 1961-1990 Normals.

If you haven't already, please take our survey and provide feedback about our website: https://eccc.sondage-survey.ca/f/LanguageSelection.aspx?s=442ca660-fcf1-47c0-95a9-59707d6fd709

Hourly Data Report for April 04, 2004

TORONTO CITY
ONTARIO

43°40'00.000" N
79°24'00.000" W
112.50 m
6158355
71508
XTO

Download Data

Hourly Data (April 2004)
Hourly Data Report for April 4, 2004
TIME
LST
Temp Definition
°C
Dew Point Definition
°C
Rel Hum Definition
%
Precip. Amount Definition
mm

Wind Dir Definition
10's deg

Wind Spd Definition
km/h
Visibility Definition
km
Stn Press Definition
kPa
Hmdx Definition


Wind Chill Definition


Weather Definition


00:00 3.6 2.4 92   LegendMM LegendMM LegendMM 98.65     LegendNANA
01:00 3.1 1.8 91   LegendMM LegendMM LegendMM 98.67     LegendNANA
02:00 2.3 1.0 91   LegendMM LegendMM LegendMM 98.69     LegendNANA
03:00 2.1 0.5 89   LegendMM LegendMM LegendMM 98.71     LegendNANA
04:00 1.4 -0.6 87   LegendMM LegendMM LegendMM 98.78     LegendNANA
05:00 0.4 -2.1 83   LegendMM LegendMM LegendMM 98.86     LegendNANA
06:00 -0.5 -3.6 80   LegendMM LegendMM LegendMM 98.94     LegendNANA
07:00 -1.2 -4.3 79   LegendMM LegendMM LegendMM 99.04     LegendNANA
08:00 -2.0 -5.4 78   LegendMM LegendMM LegendMM 99.11     LegendNANA
09:00 -2.5 -6.6 73   LegendMM LegendMM LegendMM 99.18     LegendNANA
10:00 -2.5 -6.4 75   LegendMM LegendMM LegendMM 99.26     LegendNANA
11:00 -2.5 -6.6 73   LegendMM LegendMM LegendMM 99.33     LegendNANA
12:00 -2.3 -6.9 71   LegendMM LegendMM LegendMM 99.38     LegendNANA
13:00 -1.8 -7.2 67   LegendMM LegendMM LegendMM 99.40     LegendNANA
14:00 -2.0 -7.2 68   LegendMM LegendMM LegendMM 99.43     LegendNANA
15:00 -2.0 -8.0 63   LegendMM LegendMM LegendMM 99.49     LegendNANA
16:00 -1.6 -8.4 60   LegendMM LegendMM LegendMM 99.53     LegendNANA
17:00 -1.2 -8.9 56   LegendMM LegendMM LegendMM 99.60     LegendNANA
18:00 -1.4 -10.1 52   LegendMM LegendMM LegendMM 99.66     LegendNANA
19:00 -1.6 -10.8 49   LegendMM LegendMM LegendMM 99.72     LegendNANA
20:00 -1.5 -10.9 49   LegendMM LegendMM LegendMM 99.77     LegendNANA
21:00 -1.5 -10.2 51   LegendMM LegendMM LegendMM 99.81     LegendNANA
22:00 -1.7 -14.6 37   LegendMM LegendMM LegendMM 99.86     LegendNANA
23:00 -2.2 -15.0 37   LegendMM LegendMM LegendMM 99.90     LegendNANA

Notes on Data Quality.

Legend

  • E = Estimated
  • M = Missing
  • NA = Not Available*
  • [empty] = Indicates an unobserved value
Date modified: